Location: Unspecified
(43.4680°N, 87.1740°E)
Time: 20:09:40
(UTC+00:00)

Sich 1 Rocket - Pass Details

Date: 17 April 2021
Orbit: 617 x 651 km, 82.5° (Epoch: 12 May)

Event Time Altitude Azimuth Distance (km) Brightness Sun altitude
Rises 22:18:48 0° 341° (NNW) 2,974 7.2 -11.9°
Reaches altitude 10° 22:21:15 10° 331° (NNW) 2,061 6.2 -11.5°
Maximum altitude 22:25:15 31° 270° (W) 1,153 4.5 -10.8°
Drops below altitude 10° 22:29:15 10° 209° (SSW) 2,052 5.7 -10.2°
Enters shadow 22:30:15 - 204° (SSW) 2,411 6.1 -10.0°
